Osceola, IA

2:16 PM CDT on August 25, 2016 (GMT -0500)
Osceola Municipal

Weather History for KI75 - May, 2013

Change the Weather History Date:

Saturday, May 18, 2013

  Actual Average (KLWD) Record (KLWD)
Temperature  
Mean Temperature 70 °F 62 °F  
Max Temperature 84 °F 72 °F 88 °F (1964)
Min Temperature 58 °F 52 °F 37 °F (2002)
Degree Days  
Heating Degree Days 0 5  
Month to date heating degree days 123  
Since 1 July heating degree days 6018  
Cooling Degree Days 6 2  
Month to date cooling degree days 16  
Year to date cooling degree days 23  
Growing Degree Days 20 (Base 50)    
Moisture  
Dew Point 59 °F    
Average Humidity 68    
Maximum Humidity 94    
Minimum Humidity 44    
Precipitation  
Precipitation 0.00 in 0.17 in 1.59 in (1987)
Month to date precipitation 2.96  
Sea Level Pressure  
Sea Level Pressure 29.89 in    
Wind  
Wind Speed 7 mph (SE)    
Max Wind Speed 16 mph    
Max Gust Speed 24 mph    
Visibility 10 miles    
Events      
T = Trace of Precipitation, MM = Missing Value Source: NWS Daily Summary

Daily Weather History Graph

Daily Weather History Graph

Search for Another Location

Airport or City:

Trip Planner

Search our weather history database for the weather conditions in past years. The results will help you decide how hot, cold, wet, or windy it might be!

Date:

Astronomy

May. 18, 2013 Rise Set
Actual Time 5:53 AM CDT 8:29 PM CDT
Civil Twilight 5:22 AM CDT 9:00 PM CDT
Nautical Twilight 4:42 AM CDT 9:40 PM CDT
Astronomical Twilight 3:58 AM CDT 10:25 PM CDT
Moon 1:29 PM CDT (5/18) 1:50 AM CDT (5/18)
Length of Visible Light 15h 38m
Length of Day
14h 35m
First Quarter, 55% of the Moon is Illuminated
May 18
First Quarter
May 24
Full
May 31
Last Quarter
Jun 8
New
Jun 16
First Quarter

Hourly Weather History & Observations

Time (CDT) Temp. Heat Index Dew Point Humidity Pressure Visibility Wind Dir Wind Speed Gust Speed Precip Events Conditions
12:15 AM 62.8 °F - 57.7 °F 84% 29.95 in 10.0 mi SSE 4.6 mph - N/A   Clear
12:35 AM 61.7 °F - 57.4 °F 86% 29.95 in 10.0 mi SSE 4.6 mph - N/A   Clear
12:55 AM 61.3 °F - 57.4 °F 87% 29.95 in 10.0 mi SSE 4.6 mph - N/A   Clear
1:15 AM 61.9 °F - 57.6 °F 86% 29.94 in 10.0 mi SSE 5.8 mph - N/A   Clear
1:35 AM 61.7 °F - 57.4 °F 86% 29.95 in 10.0 mi South 3.5 mph - N/A   Clear
1:55 AM 60.8 °F - 57.0 °F 87% 29.94 in 10.0 mi SSE 4.6 mph - N/A   Clear
2:15 AM 59.9 °F - 56.8 °F 90% 29.94 in 10.0 mi SE 3.5 mph - N/A   Clear
2:35 AM 59.4 °F - 56.5 °F 90% 29.94 in 10.0 mi Calm Calm - N/A   Clear
2:55 AM 58.6 °F - 56.1 °F 91% 29.94 in 10.0 mi Calm Calm - N/A   Clear
3:15 AM 59.0 °F - 56.5 °F 91% 29.94 in 10.0 mi ESE 3.5 mph - N/A   Clear
3:35 AM 58.3 °F - 55.8 °F 91% 29.93 in 10.0 mi SE 4.6 mph - N/A   Scattered Clouds
3:55 AM 58.3 °F - 56.1 °F 93% 29.93 in 10.0 mi SE 3.5 mph - N/A   Scattered Clouds
4:15 AM 59.0 °F - 56.5 °F 91% 29.93 in 10.0 mi Calm Calm - N/A   Scattered Clouds
4:35 AM 59.2 °F - 56.7 °F 91% 29.93 in 10.0 mi Calm Calm - N/A   Mostly Cloudy
4:55 AM 58.5 °F - 55.8 °F 91% 29.93 in 7.0 mi Calm Calm - N/A   Mostly Cloudy
5:15 AM 58.8 °F - 57.0 °F 94% 29.93 in 10.0 mi Calm Calm - N/A   Mostly Cloudy
5:35 AM 58.1 °F - 55.9 °F 93% 29.93 in 5.0 mi Calm Calm - N/A   Overcast
5:55 AM 58.3 °F - 56.3 °F 93% 29.93 in 7.0 mi East 3.5 mph - N/A   Overcast
6:15 AM 58.3 °F - 56.3 °F 93% 29.93 in 7.0 mi ESE 4.6 mph - N/A   Mostly Cloudy
6:35 AM 60.1 °F - 57.6 °F 91% 29.93 in 10.0 mi ESE 4.6 mph - N/A   Mostly Cloudy
6:55 AM 61.0 °F - 58.1 °F 90% 29.94 in 10.0 mi SE 4.6 mph - N/A   Scattered Clouds
7:15 AM 63.1 °F - 59.9 °F 89% 29.94 in 10.0 mi SE 5.8 mph - N/A   Clear
7:35 AM 65.3 °F - 60.3 °F 84% 29.94 in 10.0 mi SSE 5.8 mph - N/A   Scattered Clouds
7:55 AM 66.9 °F - 61.0 °F 81% 29.95 in 10.0 mi SSE 6.9 mph - N/A   Scattered Clouds
8:15 AM 68.7 °F - 61.3 °F 77% 29.95 in 10.0 mi SE 6.9 mph - N/A   Clear
8:35 AM 70.0 °F - 62.1 °F 76% 29.95 in 10.0 mi SE 9.2 mph - N/A   Clear
8:55 AM 71.2 °F - 61.7 °F 72% 29.95 in 10.0 mi SSE 9.2 mph - N/A   Clear
9:15 AM 72.7 °F - 61.9 °F 69% 29.95 in 10.0 mi SSE 10.4 mph - N/A   Clear
9:35 AM 74.5 °F - 61.7 °F 64% 29.94 in 10.0 mi SE 6.9 mph - N/A   Clear
9:55 AM 75.4 °F - 61.3 °F 62% 29.94 in 10.0 mi SE 12.7 mph 16.1 mph N/A   Clear
10:15 AM 76.6 °F - 60.6 °F 58% 29.94 in 10.0 mi SSE 10.4 mph - N/A   Scattered Clouds
10:35 AM 77.5 °F - 61.2 °F 57% 29.94 in 10.0 mi SE 11.5 mph 17.3 mph N/A   Scattered Clouds
10:55 AM 78.3 °F - 60.6 °F 54% 29.94 in 10.0 mi SSE 10.4 mph 17.3 mph N/A   Scattered Clouds
11:15 AM 76.5 °F - 59.5 °F 56% 29.94 in 10.0 mi SE 11.5 mph - N/A   Mostly Cloudy
11:35 AM 77.4 °F - 59.7 °F 54% 29.93 in 10.0 mi SSE 12.7 mph 16.1 mph N/A   Mostly Cloudy
11:55 AM 78.3 °F - 59.5 °F 52% 29.92 in 10.0 mi SE 11.5 mph - N/A   Mostly Cloudy
12:15 PM 80.2 °F 81.0 °F 60.3 °F 50% 29.92 in 10.0 mi ESE 13.8 mph 18.4 mph N/A   Mostly Cloudy
12:35 PM 81.0 °F 81.5 °F 59.7 °F 48% 29.91 in 10.0 mi SE 12.7 mph 18.4 mph N/A   Mostly Cloudy
12:55 PM 80.4 °F 81.0 °F 59.2 °F 48% 29.91 in 10.0 mi SSE 12.7 mph 18.4 mph N/A   Mostly Cloudy
1:15 PM 80.4 °F 81.1 °F 59.7 °F 49% 29.91 in 10.0 mi SE 15.0 mph 24.2 mph N/A   Mostly Cloudy
1:35 PM 80.1 °F 80.7 °F 58.8 °F 48% 29.90 in 10.0 mi SSE 12.7 mph - N/A   Mostly Cloudy
2:15 PM 81.5 °F 81.7 °F 58.8 °F 46% 29.88 in 10.0 mi SE 10.4 mph 18.4 mph N/A   Mostly Cloudy
2:35 PM 83.1 °F 83.2 °F 59.5 °F 45% 29.88 in 10.0 mi SE 13.8 mph 18.4 mph N/A   Mostly Cloudy
2:55 PM 83.5 °F 83.4 °F 59.2 °F 44% 29.88 in 10.0 mi SE 16.1 mph - N/A   Mostly Cloudy
3:15 PM 82.8 °F 83.0 °F 59.9 °F 46% 29.87 in 10.0 mi SE 16.1 mph 21.9 mph N/A   Mostly Cloudy
3:35 PM 81.9 °F 82.1 °F 59.2 °F 46% 29.86 in 10.0 mi SE 13.8 mph 19.6 mph N/A   Scattered Clouds
3:55 PM 81.7 °F 81.8 °F 58.6 °F 45% 29.86 in 10.0 mi SSE 13.8 mph 18.4 mph N/A   Scattered Clouds
4:15 PM 82.2 °F 82.6 °F 60.1 °F 47% 29.86 in 10.0 mi SE 12.7 mph 18.4 mph N/A   Mostly Cloudy
4:35 PM 82.8 °F 82.7 °F 58.6 °F 44% 29.87 in 7.0 mi SSE 11.5 mph - N/A   Mostly Cloudy
5:15 PM 82.6 °F 82.6 °F 59.4 °F 45% 29.86 in 7.0 mi SSE 15.0 mph 20.7 mph N/A   Mostly Cloudy
5:35 PM 82.8 °F 83.0 °F 60.1 °F 46% 29.86 in 10.0 mi SSE 16.1 mph - N/A   Scattered Clouds
5:55 PM 82.0 °F 82.4 °F 60.3 °F 47% 29.86 in 10.0 mi SE 12.7 mph - N/A   Scattered Clouds
6:15 PM 81.1 °F 81.8 °F 60.1 °F 49% 29.86 in 7.0 mi SE 12.7 mph - N/A   Scattered Clouds
6:35 PM 79.9 °F - 60.6 °F 52% 29.84 in 10.0 mi SE 12.7 mph - N/A   Clear
6:55 PM 79.7 °F - 61.0 °F 53% 29.82 in 10.0 mi East 12.7 mph - N/A   Clear
7:15 PM 79.7 °F - 61.0 °F 53% 29.83 in 10.0 mi SE 12.7 mph - N/A   Clear
7:35 PM 78.8 °F - 61.3 °F 55% 29.82 in 10.0 mi ESE 9.2 mph - N/A   Clear
7:55 PM 77.5 °F - 61.5 °F 58% 29.82 in 10.0 mi ESE 9.2 mph - N/A   Clear
8:15 PM 76.1 °F - 61.5 °F 60% 29.81 in 10.0 mi ESE 9.2 mph - N/A   Clear
8:35 PM 74.8 °F - 61.7 °F 64% 29.81 in 10.0 mi ESE 9.2 mph - N/A   Clear
8:55 PM 74.3 °F - 61.7 °F 65% 29.81 in 10.0 mi ESE 8.1 mph - N/A   Scattered Clouds
9:15 PM 73.8 °F - 61.7 °F 66% 29.81 in 10.0 mi ESE 9.2 mph - N/A   Mostly Cloudy
9:35 PM 72.7 °F - 61.9 °F 69% 29.81 in 10.0 mi ESE 6.9 mph - N/A   Clear
9:55 PM 72.0 °F - 61.9 °F 70% 29.81 in 10.0 mi ESE 9.2 mph - N/A   Clear
10:15 PM 71.6 °F - 62.1 °F 72% 29.81 in 10.0 mi East 8.1 mph - N/A   Clear
10:35 PM 71.4 °F - 62.1 °F 72% 29.81 in 10.0 mi ESE 11.5 mph - N/A   Clear
10:55 PM 71.1 °F - 61.7 °F 72% 29.81 in 10.0 mi ESE 11.5 mph - N/A   Scattered Clouds
11:15 PM 70.9 °F - 61.7 °F 73% 29.78 in 10.0 mi ESE 13.8 mph - N/A   Scattered Clouds
11:35 PM 70.3 °F - 61.3 °F 73% 29.78 in 10.0 mi ESE 15.0 mph 19.6 mph N/A   Clear
11:55 PM 70.2 °F - 61.5 °F 74% 29.79 in 10.0 mi SE 16.1 mph 20.7 mph N/A   Clear